Home > Weather > Cochabamba > Past weeks

Flag for Bolivia Past Weather in Cochabamba, Bolivia — Yesterday and Last 2 Weeks

Now
68 °F

Passing clouds.


Feels Like: 68 °F
Forecast: 44 / 76 °F
Wind: 3 mph from South

Location: Cochabamba Airport

Current Time: May 28, 2016 at 12:19:53 PM

Latest Report: May 28, 2016 at 11:00 AM


Visibility: N/A

Pressure: 30.33 "Hg (22.44 "Hg at 2584m altitude)

Humidity: 30%

Dew Point: 36 °F

Location of CochabambaLocation

Past Weather in Cochabamba — Graph

°F

Cochabamba Temperature Yesterday

Maximum temperature yesterday: 75 °F (at 2:00 PM)
Minimum temperature yesterday: 45 °F (at 6:00 AM)
Average temperature yesterday: 60 °F

High & Low Weather Summary for the Past Weeks

 TemperatureHumidityPressure
High84 °F (May 15, 4:00 PM)82% (May 15, 7:00 AM)30.45 "Hg (May 15, 7:00 AM)
Low41 °F (May 18, 7:00 AM)3% (May 20, 3:00 PM)30.07 "Hg (May 17, 4:00 PM)
Average63 °F38%30.27 "Hg
* Reported May 13 10:00 AM — May 28 10:00 AM, Cochabamba, Weather by CustomWeather, © 2016

Note: Actual official high and low records may vary slightly from our data, if they occured in-between our weather recording intervals... More about our weather records

Advertising

Cochabamba Weather History for the Previous 24 Hours

Scroll right to see more
 ConditionsComfort  
Time TempWeatherWind HumidityBarometerVisibility
10:00 AM
Sat, May 28
63 °FPassing clouds.No wind39%30.33 "Hg6 mi
9:00 AM57 °FPassing clouds.No wind51%30.33 "Hg5 mi
8:00 AM46 °FPassing clouds.No wind66%30.33 "Hg3 mi
7:00 AM43 °FPassing clouds.No wind71%30.33 "Hg5 mi
6:00 AM45 °FClear.No wind76%30.33 "HgN/A
5:00 AM45 °FClear.No wind76%30.30 "HgN/A
4:00 AM48 °FClear.No wind66%30.27 "HgN/A
3:00 AM48 °FClear.3 mph66%30.27 "HgN/A
2:00 AM54 °FClear.3 mph58%30.27 "HgN/A
1:00 AM52 °FClear.3 mph58%30.27 "HgN/A
12:00 AM57 °FClear.9 mph51%30.24 "HgN/A
11:00 PM
Fri, May 27
59 °FPassing clouds.8 mph48%30.24 "HgN/A
10:00 PM59 °FPassing clouds.7 mph45%30.24 "HgN/A
9:00 PM61 °FPassing clouds.6 mph39%30.21 "HgN/A
8:00 PM63 °FPassing clouds.6 mph37%30.18 "HgN/A
7:00 PM63 °FPassing clouds.6 mph37%30.15 "HgN/A
6:00 PM66 °FPassing clouds.9 mph35%30.12 "HgN/A
5:00 PM68 °FScattered clouds.13 mph28%30.12 "HgN/A
4:00 PM73 °FPassing clouds.12 mph23%30.12 "HgN/A
3:00 PM73 °FPassing clouds.8 mph23%30.12 "HgN/A
2:00 PM75 °FPassing clouds.5 mph21%30.18 "HgN/A
1:00 PM72 °FPassing clouds.3 mph25%30.21 "HgN/A
12:00 PM70 °FPassing clouds.No wind27%30.27 "HgN/A
Weather by CustomWeather, © 2016

See weather overviewHow to use our weather pages